QPF
0.00 0.00 0.00 0.00 0.00 0.00 0.00 0.00 0.00 0.01 0.02 0.01 0.02 0.02 0.02 0.03 0.03 0.04 0.04 0.04 0.04 0.05 0.07 0.08 0.08 0.11 0.12 0.16 0.12 0.10 0.10 0.11 0.11 0.12 0.13 0.14 0.14 0.14 0.12 0.09 0.09 0.09 0.07 0.05
0.00 0.00 0.00 0.00 0.00 0.00 0.00 0.00 0.00 0.01 0.04 0.03 0.02 0.02 0.02 0.01 0.02 0.02 0.03 0.03 0.05 0.05 0.05 0.07 0.09 0.09 0.11 0.11 0.08 0.08 0.10 0.11 0.11 0.11 0.13 0.15 0.14 0.13 0.14 0.13 0.10 0.09 0.08 0.05
0.00 0.00 0.00 0.00 0.00 0.00 0.00 0.00 0.00 0.01 0.04 0.06 0.06 0.03 0.02 0.02 0.02 0.02 0.02 0.03 0.04 0.04 0.05 0.07 0.08 0.08 0.09 0.08 0.09 0.10 0.12 0.13 0.11 0.16 0.20 0.19 0.19 0.16 0.15 0.14 0.12 0.10 0.09 0.07
0.00 0.00 0.00 0.00 0.00 0.00 0.00 0.00 0.00 0.00 0.01 0.03 0.08 0.06 0.03 0.02 0.02 0.02 0.03 0.04 0.04 0.05 0.06 0.09 0.10 0.10 0.09 0.08 0.10 0.13 0.16 0.17 0.16 0.20 0.30 0.28 0.21 0.15 0.12 0.10 0.09 0.10 0.08 0.07
0.00 0.00 0.00 0.00 0.00 0.00 0.00 0.00 0.00 0.00 0.00 0.02 0.05 0.03 0.02 0.02 0.02 0.02 0.03 0.04 0.04 0.06 0.08 0.09 0.09 0.09 0.08 0.08 0.10 0.15 0.23 0.29 0.25 0.27 0.27 0.26 0.21 0.15 0.12 0.10 0.08 0.07 0.06 0.06
0.00 0.00 0.00 0.00 0.00 0.00 0.00 0.00 0.00 0.00 0.00 0.01 0.01 0.02 0.02 0.02 0.02 0.02 0.03 0.04 0.04 0.06 0.07 0.08 0.09 0.11 0.12 0.11 0.09 0.09 0.15 0.23 0.25 0.22 0.20 0.20 0.19 0.14 0.10 0.10 0.08 0.07 0.06 0.04
0.00 0.00 0.00 0.00 0.00 0.00 0.00 0.00 0.00 0.00 0.01 0.01 0.01 0.02 0.02 0.03 0.03 0.02 0.03 0.04 0.04 0.04 0.05 0.06 0.08 0.09 0.09 0.10 0.11 0.11 0.13 0.16 0.21 0.18 0.17 0.17 0.15 0.14 0.11 0.10 0.10 0.10 0.08 0.06
0.00 0.00 0.00 0.00 0.00 0.00 0.00 0.00 0.00 0.01 0.01 0.02 0.02 0.03 0.03 0.04 0.05 0.05 0.04 0.04 0.04 0.04 0.05 0.06 0.06 0.06 0.05 0.06 0.06 0.07 0.10 0.15 0.19 0.16 0.13 0.13 0.14 0.12 0.12 0.11 0.10 0.09 0.07 0.05
0.00 0.00 0.00 0.00 0.00 0.00 0.00 0.00 0.00 0.01 0.01 0.02 0.03 0.04 0.05 0.07 0.09 0.07 0.05 0.04 0.04 0.04 0.05 0.04 0.03 0.03 0.03 0.05 0.06 0.05 0.07 0.11 0.16 0.13 0.11 0.10 0.13 0.12 0.14 0.13 0.09 0.06 0.04 0.04
0.00 0.00 0.00 0.00 0.01 0.01 0.00 0.00 0.01 0.01 0.01 0.02 0.03 0.05 0.07 0.07 0.07 0.06 0.05 0.04 0.03 0.03 0.04 0.03 0.03 0.04 0.03 0.03 0.06 0.09 0.09 0.07 0.10 0.10 0.12 0.13 0.12 0.12 0.11 0.10 0.05 0.02 0.02 0.03
0.01 0.01 0.01 0.01 0.01 0.01 0.01 0.01 0.01 0.01 0.01 0.01 0.01 0.03 0.05 0.06 0.07 0.05 0.03 0.02 0.01 0.02 0.03 0.02 0.03 0.06 0.07 0.06 0.06 0.09 0.08 0.06 0.06 0.06 0.08 0.11 0.09 0.08 0.05 0.03 0.02 0.02 0.02 0.03
0.01 0.00 0.01 0.01 0.01 0.01 0.00 0.00 0.00 0.00 0.00 0.00 0.01 0.03 0.05 0.08 0.10 0.05 0.02 0.03 0.03 0.02 0.02 0.03 0.02 0.03 0.05 0.09 0.09 0.08 0.06 0.05 0.06 0.06 0.05 0.05 0.05 0.04 0.03 0.02 0.02 0.03 0.03 0.02
0.00 0.00 0.01 0.01 0.01 0.01 0.00 0.00 0.00 0.00 0.00 0.00 0.03 0.07 0.10 0.11 0.08 0.04 0.02 0.02 0.04 0.03 0.03 0.03 0.03 0.04 0.05 0.07 0.08 0.07 0.06 0.05 0.07 0.05 0.04 0.03 0.03 0.03 0.02 0.02 0.03 0.04 0.03 0.02
0.01 0.00 0.01 0.01 0.01 0.01 0.00 0.00 0.00 0.00 0.00 0.01 0.04 0.06 0.08 0.06 0.05 0.03 0.02 0.02 0.02 0.02 0.02 0.03 0.03 0.05 0.06 0.07 0.06 0.04 0.05 0.06 0.05 0.04 0.04 0.03 0.02 0.02 0.02 0.03 0.03 0.04 0.04 0.03
0.02 0.01 0.01 0.01 0.02 0.02 0.01 0.01 0.01 0.01 0.01 0.01 0.02 0.04 0.06 0.07 0.06 0.04 0.03 0.02 0.01 0.02 0.02 0.02 0.04 0.05 0.06 0.06 0.05 0.04 0.04 0.05 0.05 0.05 0.04 0.03 0.03 0.03 0.03 0.03 0.04 0.04 0.04 0.04
0.02 0.01 0.01 0.02 0.02 0.02 0.01 0.01 0.02 0.03 0.03 0.02 0.02 0.04 0.05 0.06 0.05 0.03 0.03 0.02 0.01 0.02 0.02 0.02 0.02 0.02 0.04 0.05 0.04 0.03 0.03 0.03 0.03 0.04 0.04 0.04 0.03 0.03 0.03 0.03 0.03 0.02 0.03 0.03
0.02 0.02 0.01 0.01 0.01 0.02 0.02 0.02 0.03 0.05 0.05 0.04 0.03 0.03 0.04 0.05 0.06 0.03 0.04 0.04 0.03 0.03 0.03 0.02 0.02 0.02 0.03 0.03 0.02 0.02 0.02 0.03 0.03 0.04 0.04 0.03 0.03 0.02 0.03 0.03 0.02 0.01 0.02 0.02
0.01 0.01 0.01 0.01 0.02 0.04 0.04 0.02 0.03 0.04 0.05 0.04 0.03 0.02 0.03 0.04 0.03 0.02 0.04 0.05 0.05 0.04 0.03 0.03 0.02 0.03 0.03 0.03 0.03 0.03 0.02 0.03 0.03 0.04 0.03 0.03 0.02 0.02 0.02 0.02 0.01 0.01 0.02 0.02
0.01 0.01 0.01 0.01 0.01 0.02 0.03 0.03 0.04 0.04 0.05 0.03 0.01 0.01 0.01 0.02 0.01 0.02 0.04 0.05 0.07 0.05 0.03 0.03 0.02 0.02 0.02 0.02 0.02 0.03 0.03 0.04 0.04 0.04 0.03 0.03 0.02 0.01 0.01 0.01 0.01 0.02 0.03 0.02
0.01 0.01 0.01 0.01 0.02 0.02 0.03 0.03 0.03 0.03 0.05 0.04 0.02 0.01 0.01 0.01 0.02 0.02 0.03 0.06 0.06 0.05 0.04 0.03 0.01 0.01 0.01 0.01 0.01 0.02 0.03 0.04 0.04 0.03 0.03 0.02 0.01 0.01 0.01 0.02 0.01 0.01 0.01 0.02
0.01 0.01 0.02 0.03 0.03 0.03 0.03 0.03 0.02 0.03 0.05 0.05 0.02 0.01 0.01 0.02 0.03 0.03 0.03 0.06 0.06 0.06 0.04 0.02 0.01 0.01 0.02 0.03 0.03 0.02 0.03 0.04 0.04 0.03 0.02 0.01 0.01 0.01 0.01 0.02 0.01 0.01 0.01 0.01
0.01 0.02 0.03 0.02 0.02 0.02 0.02 0.02 0.02 0.03 0.03 0.03 0.02 0.02 0.01 0.02 0.02 0.02 0.03 0.03 0.03 0.03 0.02 0.01 0.01 0.02 0.03 0.04 0.03 0.03 0.03 0.04 0.04 0.03 0.02 0.02 0.02 0.02 0.02 0.02 0.03 0.02 0.02 0.02
0.02 0.03 0.02 0.02 0.03 0.04 0.04 0.02 0.02 0.02 0.02 0.02 0.02 0.02 0.01 0.02 0.01 0.01 0.01 0.02 0.02 0.02 0.01 0.01 0.01 0.01 0.01 0.01 0.02 0.02 0.02 0.03 0.03 0.03 0.02 0.01 0.02 0.02 0.03 0.04 0.03 0.03 0.04 0.04
0.02 0.02 0.02 0.02 0.03 0.04 0.04 0.03 0.03 0.02 0.02 0.02 0.02 0.01 0.01 0.01 0.00 0.00 0.00 0.01 0.02 0.02 0.01 0.01 0.01 0.01 0.00 0.00 0.00 0.01 0.01 0.01 0.02 0.02 0.01 0.01 0.02 0.02 0.02 0.03 0.05 0.06 0.06 0.06
0.02 0.01 0.01 0.01 0.02 0.03 0.02 0.02 0.02 0.01 0.01 0.01 0.01 0.01 0.01 0.01 0.01 0.00 0.00 0.00 0.01 0.01 0.02 0.02 0.02 0.02 0.01 0.01 0.00 0.00 0.01 0.01 0.02 0.03 0.03 0.03 0.03 0.02 0.02 0.02 0.02 0.03 0.03 0.03
0.01 0.02 0.02 0.02 0.01 0.01 0.01 0.01 0.01 0.02 0.02 0.01 0.01 0.01 0.01 0.01 0.01 0.01 0.01 0.00 0.00 0.01 0.01 0.02 0.01 0.02 0.03 0.02 0.01 0.01 0.01 0.01 0.01 0.03 0.05 0.04 0.03 0.03 0.03 0.02 0.02 0.02 0.01 0.01
MSLP
1014.53 1015.17 1015.44 1015.38 1015.09 1014.72 1014.45 1014.41 1014.67 1015.23 1016.00 1016.84 1017.61 1018.15 1018.36 1018.19 1017.69 1016.94 1016.07 1015.19 1014.39 1013.71 1013.15 1012.67 1012.20 1011.69 1011.11 1010.46 1009.78 1009.15 1008.64 1008.32 1008.21 1008.30 1008.54 1008.87 1009.19 1009.44 1009.57 1009.58 1009.50 1009.38 1009.29 1009.28
1015.59 1016.09 1016.22 1016.02 1015.62 1015.18 1014.87 1014.82 1015.10 1015.70 1016.53 1017.43 1018.25 1018.84 1019.10 1018.99 1018.56 1017.89 1017.10 1016.31 1015.59 1014.98 1014.48 1014.02 1013.55 1013.00 1012.35 1011.62 1010.84 1010.11 1009.50 1009.08 1008.88 1008.89 1009.07 1009.33 1009.59 1009.79 1009.86 1009.82 1009.69 1009.53 1009.40 1009.36
1016.58 1016.92 1016.90 1016.57 1016.07 1015.57 1015.23 1015.18 1015.48 1016.10 1016.95 1017.88 1018.72 1019.33 1019.62 1019.54 1019.16 1018.55 1017.84 1017.12 1016.48 1015.95 1015.50 1015.08 1014.62 1014.08 1013.41 1012.65 1011.83 1011.05 1010.38 1009.90 1009.64 1009.59 1009.70 1009.90 1010.11 1010.25 1010.29 1010.22 1010.06 1009.88 1009.74 1009.66
1017.47 1017.64 1017.48 1017.05 1016.49 1015.97 1015.63 1015.60 1015.93 1016.57 1017.43 1018.35 1019.17 1019.76 1020.04 1019.96 1019.59 1019.02 1018.35 1017.69 1017.10 1016.62 1016.22 1015.85 1015.43 1014.92 1014.28 1013.53 1012.73 1011.94 1011.26 1010.76 1010.46 1010.36 1010.42 1010.56 1010.72 1010.82 1010.82 1010.74 1010.58 1010.40 1010.25 1010.17
1018.26 1018.29 1018.02 1017.54 1016.98 1016.48 1016.20 1016.22 1016.59 1017.25 1018.09 1018.98 1019.75 1020.29 1020.51 1020.39 1019.99 1019.41 1018.74 1018.10 1017.54 1017.09 1016.73 1016.39 1016.02 1015.55 1014.97 1014.28 1013.53 1012.79 1012.14 1011.64 1011.32 1011.19 1011.20 1011.28 1011.39 1011.45 1011.43 1011.34 1011.19 1011.02 1010.88 1010.80
1018.98 1018.91 1018.60 1018.13 1017.62 1017.20 1017.01 1017.11 1017.53 1018.20 1019.02 1019.84 1020.53 1020.97 1021.10 1020.91 1020.44 1019.81 1019.12 1018.46 1017.89 1017.45 1017.09 1016.78 1016.45 1016.05 1015.53 1014.92 1014.25 1013.58 1012.99 1012.52 1012.20 1012.04 1012.00 1012.04 1012.09 1012.11 1012.07 1011.97 1011.82 1011.67 1011.54 1011.47
1019.69 1019.56 1019.26 1018.86 1018.45 1018.16 1018.08 1018.28 1018.75 1019.42 1020.19 1020.93 1021.51 1021.83 1021.83 1021.53 1020.98 1020.28 1019.53 1018.83 1018.23 1017.76 1017.40 1017.11 1016.81 1016.46 1016.02 1015.50 1014.92 1014.34 1013.81 1013.37 1013.06 1012.88 1012.80 1012.78 1012.77 1012.74 1012.67 1012.56 1012.42 1012.28 1012.17 1012.09
1020.39 1020.28 1020.03 1019.74 1019.47 1019.32 1019.37 1019.66 1020.16 1020.81 1021.51 1022.14 1022.58 1022.76 1022.63 1022.21 1021.56 1020.78 1019.97 1019.22 1018.58 1018.08 1017.71 1017.41 1017.14 1016.83 1016.46 1016.03 1015.54 1015.04 1014.58 1014.18 1013.88 1013.67 1013.54 1013.46 1013.40 1013.32 1013.21 1013.08 1012.93 1012.79 1012.67 1012.59
1021.11 1021.04 1020.89 1020.72 1020.60 1020.59 1020.75 1021.11 1021.62 1022.22 1022.83 1023.33 1023.62 1023.65 1023.39 1022.86 1022.12 1021.28 1020.41 1019.62 1018.95 1018.42 1018.03 1017.72 1017.46 1017.19 1016.87 1016.51 1016.10 1015.68 1015.27 1014.91 1014.62 1014.39 1014.21 1014.07 1013.94 1013.80 1013.65 1013.49 1013.32 1013.16 1013.03 1012.92
1021.81 1021.81 1021.77 1021.72 1021.73 1021.84 1022.08 1022.47 1022.95 1023.49 1023.97 1024.33 1024.48 1024.37 1023.99 1023.38 1022.58 1021.70 1020.82 1020.01 1019.32 1018.77 1018.36 1018.05 1017.78 1017.53 1017.26 1016.95 1016.60 1016.24 1015.88 1015.55 1015.26 1015.00 1014.78 1014.58 1014.39 1014.19 1013.99 1013.78 1013.58 1013.39 1013.23 1013.08
1022.45 1022.53 1022.58 1022.65 1022.75 1022.94 1023.22 1023.59 1024.03 1024.46 1024.82 1025.04 1025.05 1024.83 1024.38 1023.71 1022.91 1022.03 1021.16 1020.36 1019.68 1019.13 1018.71 1018.38 1018.11 1017.87 1017.61 1017.33 1017.03 1016.71 1016.38 1016.07 1015.78 1015.50 1015.25 1014.99 1014.74 1014.48 1014.22 1013.96 1013.72 1013.50 1013.29 1013.10
1023.00 1023.15 1023.28 1023.42 1023.59 1023.81 1024.09 1024.43 1024.78 1025.10 1025.34 1025.43 1025.34 1025.05 1024.55 1023.88 1023.10 1022.27 1021.45 1020.69 1020.04 1019.50 1019.08 1018.74 1018.45 1018.20 1017.94 1017.67 1017.39 1017.09 1016.79 1016.49 1016.19 1015.90 1015.61 1015.31 1015.01 1014.70 1014.38 1014.08 1013.79 1013.52 1013.27 1013.03
1023.44 1023.65 1023.83 1024.02 1024.21 1024.44 1024.69 1024.96 1025.23 1025.45 1025.57 1025.57 1025.41 1025.07 1024.58 1023.94 1023.22 1022.46 1021.72 1021.03 1020.42 1019.90 1019.48 1019.12 1018.81 1018.53 1018.26 1017.98 1017.70 1017.41 1017.12 1016.82 1016.52 1016.21 1015.89 1015.56 1015.22 1014.86 1014.51 1014.16 1013.83 1013.52 1013.23 1012.95
1023.80 1024.04 1024.25 1024.45 1024.65 1024.86 1025.07 1025.28 1025.46 1025.59 1025.63 1025.56 1025.36 1025.02 1024.55 1023.98 1023.34 1022.67 1022.02 1021.40 1020.84 1020.35 1019.92 1019.54 1019.20 1018.88 1018.58 1018.28 1017.98 1017.69 1017.39 1017.09 1016.78 1016.46 1016.12 1015.77 1015.39 1015.01 1014.62 1014.24 1013.88 1013.54 1013.22 1012.91
1024.12 1024.37 1024.59 1024.79 1024.97 1025.15 1025.32 1025.47 1025.59 1025.65 1025.63 1025.52 1025.30 1024.98 1024.56 1024.06 1023.51 1022.94 1022.37 1021.82 1021.31 1020.83 1020.40 1019.99 1019.62 1019.26 1018.91 1018.58 1018.25 1017.94 1017.62 1017.31 1016.99 1016.66 1016.31 1015.94 1015.55 1015.15 1014.75 1014.35 1013.98 1013.62 1013.29 1012.96
1024.45 1024.69 1024.90 1025.08 1025.24 1025.39 1025.52 1025.63 1025.69 1025.71 1025.65 1025.52 1025.31 1025.01 1024.65 1024.22 1023.75 1023.26 1022.77 1022.27 1021.80 1021.33 1020.89 1020.46 1020.04 1019.64 1019.25 1018.87 1018.52 1018.17 1017.84 1017.52 1017.19 1016.84 1016.48 1016.10 1015.71 1015.31 1014.90 1014.51 1014.13 1013.78 1013.45 1013.12
1024.83 1025.04 1025.23 1025.39 1025.52 1025.64 1025.74 1025.81 1025.83 1025.81 1025.74 1025.59 1025.39 1025.12 1024.79 1024.42 1024.02 1023.59 1023.15 1022.70 1022.25 1021.79 1021.33 1020.88 1020.43 1019.99 1019.56 1019.16 1018.77 1018.40 1018.05 1017.71 1017.36 1017.01 1016.64 1016.26 1015.87 1015.48 1015.09 1014.71 1014.35 1014.02 1013.70 1013.39
1025.27 1025.45 1025.60 1025.73 1025.83 1025.92 1025.98 1026.01 1026.01 1025.96 1025.85 1025.70 1025.49 1025.23 1024.93 1024.59 1024.22 1023.84 1023.44 1023.02 1022.58 1022.13 1021.67 1021.21 1020.74 1020.28 1019.83 1019.40 1019.00 1018.61 1018.24 1017.88 1017.52 1017.16 1016.79 1016.42 1016.04 1015.66 1015.30 1014.95 1014.62 1014.32 1014.03 1013.74
1025.76 1025.89 1026.00 1026.08 1026.15 1026.20 1026.22 1026.21 1026.16 1026.07 1025.93 1025.75 1025.52 1025.26 1024.96 1024.63 1024.29 1023.93 1023.54 1023.15 1022.73 1022.30 1021.85 1021.39 1020.93 1020.47 1020.02 1019.59 1019.17 1018.78 1018.40 1018.03 1017.66 1017.30 1016.93 1016.57 1016.20 1015.85 1015.52 1015.21 1014.92 1014.65 1014.39 1014.13
1026.22 1026.31 1026.37 1026.41 1026.42 1026.42 1026.39 1026.33 1026.24 1026.10 1025.91 1025.69 1025.43 1025.14 1024.83 1024.49 1024.15 1023.80 1023.43 1023.06 1022.67 1022.26 1021.85 1021.42 1020.98 1020.55 1020.12 1019.70 1019.30 1018.91 1018.53 1018.15 1017.78 1017.42 1017.06 1016.70 1016.36 1016.03 1015.73 1015.46 1015.21 1014.98 1014.76 1014.52
1026.60 1026.64 1026.65 1026.63 1026.59 1026.53 1026.45 1026.33 1026.17 1025.98 1025.74 1025.47 1025.16 1024.84 1024.50 1024.16 1023.81 1023.46 1023.12 1022.77 1022.41 1022.05 1021.68 1021.30 1020.91 1020.52 1020.14 1019.75 1019.37 1019.00 1018.63 1018.25 1017.89 1017.52 1017.16 1016.81 1016.49 1016.19 1015.92 1015.68 1015.46 1015.26 1015.07 1014.85
1026.83 1026.81 1026.77 1026.70 1026.61 1026.49 1026.35 1026.17 1025.96 1025.71 1025.42 1025.09 1024.75 1024.39 1024.02 1023.67 1023.32 1022.98 1022.65 1022.33 1022.02 1021.71 1021.39 1021.08 1020.75 1020.43 1020.09 1019.75 1019.41 1019.06 1018.70 1018.34 1017.97 1017.60 1017.24 1016.90 1016.58 1016.30 1016.05 1015.83 1015.64 1015.47 1015.29 1015.08
1026.84 1026.78 1026.70 1026.58 1026.45 1026.29 1026.10 1025.88 1025.61 1025.32 1024.98 1024.62 1024.24 1023.86 1023.48 1023.11 1022.76 1022.43 1022.13 1021.85 1021.58 1021.32 1021.07 1020.82 1020.56 1020.30 1020.02 1019.73 1019.43 1019.11 1018.77 1018.41 1018.04 1017.68 1017.31 1016.97 1016.65 1016.37 1016.12 1015.91 1015.73 1015.56 1015.38 1015.18
1026.62 1026.53 1026.41 1026.28 1026.11 1025.93 1025.72 1025.47 1025.18 1024.86 1024.51 1024.13 1023.74 1023.34 1022.95 1022.58 1022.24 1021.93 1021.65 1021.40 1021.17 1020.96 1020.77 1020.57 1020.38 1020.17 1019.95 1019.70 1019.44 1019.14 1018.82 1018.47 1018.11 1017.74 1017.37 1017.01 1016.68 1016.39 1016.13 1015.91 1015.72 1015.54 1015.36 1015.15
1026.18 1026.07 1025.94 1025.80 1025.63 1025.45 1025.25 1025.01 1024.73 1024.42 1024.07 1023.70 1023.30 1022.91 1022.53 1022.17 1021.84 1021.54 1021.28 1021.05 1020.85 1020.68 1020.52 1020.37 1020.22 1020.06 1019.88 1019.67 1019.43 1019.16 1018.86 1018.52 1018.16 1017.78 1017.41 1017.04 1016.69 1016.38 1016.10 1015.85 1015.63 1015.43 1015.22 1014.99
1025.55 1025.43 1025.31 1025.18 1025.05 1024.91 1024.74 1024.55 1024.31 1024.03 1023.71 1023.37 1023.00 1022.63 1022.26 1021.91 1021.58 1021.29 1021.04 1020.83 1020.64 1020.48 1020.34 1020.22 1020.09 1019.95 1019.79 1019.61 1019.40 1019.15 1018.86 1018.54 1018.18 1017.81 1017.43 1017.05 1016.68 1016.34 1016.03 1015.76 1015.50 1015.26 1015.02 1014.77
Thickness
5724 5712 5704 5710 5713 5714 5712 5706 5702 5710 5720 5713 5705 5704 5709 5715 5717 5716 5717 5718 5718 5718 5719 5719 5720 5719 5718 5718 5716 5715 5713 5711 5710 5708 5705 5703 5701 5700 5699 5698 5697 5695 5693 5690
5710 5705 5715 5720 5718 5714 5708 5701 5700 5706 5714 5707 5698 5697 5704 5708 5709 5710 5710 5711 5711 5712 5713 5712 5712 5711 5710 5709 5708 5707 5706 5705 5703 5702 5700 5698 5697 5695 5695 5694 5692 5691 5689 5687
5706 5711 5721 5717 5711 5707 5703 5699 5700 5699 5704 5702 5696 5688 5693 5701 5705 5706 5706 5705 5706 5706 5705 5704 5703 5703 5703 5702 5701 5701 5700 5699 5698 5696 5695 5693 5690 5689 5688 5688 5687 5686 5685 5683
5707 5714 5716 5711 5707 5704 5695 5707 5705 5701 5689 5679 5686 5668 5682 5690 5693 5696 5698 5699 5698 5699 5699 5698 5697 5695 5695 5695 5695 5695 5694 5693 5692 5690 5689 5688 5683 5683 5683 5683 5682 5683 5682 5680
5704 5710 5708 5703 5705 5705 5699 5705 5700 5695 5685 5675 5674 5666 5670 5683 5683 5688 5691 5693 5693 5694 5694 5693 5692 5690 5689 5689 5689 5689 5688 5686 5685 5684 5682 5682 5679 5677 5678 5678 5677 5676 5676 5675
5705 5713 5710 5707 5708 5707 5702 5695 5690 5679 5671 5660 5665 5662 5661 5671 5677 5683 5687 5688 5688 5690 5689 5688 5687 5685 5684 5683 5682 5681 5680 5679 5679 5678 5676 5675 5674 5672 5672 5671 5670 5670 5670 5669
5691 5700 5707 5709 5698 5697 5690 5674 5659 5655 5647 5650 5662 5658 5658 5674 5680 5682 5682 5682 5683 5684 5683 5681 5680 5679 5678 5677 5677 5675 5673 5672 5672 5672 5671 5671 5670 5668 5667 5666 5666 5665 5663 5663
5672 5675 5693 5699 5692 5684 5679 5671 5651 5642 5640 5645 5657 5653 5662 5675 5679 5681 5680 5679 5678 5678 5677 5677 5675 5674 5673 5673 5672 5671 5670 5667 5667 5667 5667 5667 5666 5664 5663 5663 5662 5661 5660 5659
5670 5672 5693 5696 5695 5688 5674 5663 5663 5649 5645 5640 5645 5655 5665 5673 5673 5674 5674 5673 5672 5673 5673 5673 5672 5671 5669 5668 5668 5667 5665 5664 5663 5662 5662 5662 5662 5660 5659 5658 5658 5657 5657 5657
5678 5670 5681 5689 5691 5684 5676 5665 5653 5644 5636 5633 5642 5647 5650 5660 5664 5667 5667 5667 5667 5668 5669 5668 5668 5667 5666 5665 5665 5664 5662 5661 5660 5659 5659 5659 5658 5657 5656 5655 5654 5654 5654 5653
5678 5665 5668 5675 5671 5666 5667 5660 5649 5639 5639 5632 5630 5638 5658 5659 5661 5661 5662 5663 5663 5663 5663 5664 5664 5664 5664 5662 5661 5660 5659 5658 5658 5657 5656 5655 5655 5654 5653 5652 5650 5650 5650 5649
5671 5659 5655 5665 5675 5676 5669 5660 5651 5642 5635 5632 5629 5636 5661 5660 5661 5660 5659 5660 5660 5659 5659 5659 5659 5659 5659 5658 5657 5657 5657 5656 5655 5654 5653 5651 5651 5650 5649 5648 5647 5647 5646 5645
5670 5657 5647 5651 5658 5664 5660 5659 5653 5643 5634 5629 5629 5639 5659 5659 5658 5657 5655 5655 5655 5655 5655 5655 5654 5655 5654 5654 5654 5654 5654 5654 5652 5651 5650 5648 5647 5646 5645 5645 5644 5644 5643 5642
5673 5653 5647 5642 5645 5652 5653 5656 5654 5647 5634 5632 5636 5642 5651 5652 5653 5653 5653 5652 5652 5652 5652 5651 5650 5651 5651 5651 5651 5651 5651 5651 5650 5649 5648 5646 5644 5643 5643 5642 5642 5641 5640 5639
5666 5652 5653 5654 5659 5657 5655 5654 5653 5649 5644 5638 5641 5643 5648 5649 5650 5651 5651 5650 5650 5649 5649 5648 5648 5648 5648 5648 5649 5649 5649 5649 5648 5647 5645 5644 5642 5641 5640 5640 5638 5637 5636 5635
5658 5652 5652 5652 5658 5657 5653 5653 5653 5651 5649 5646 5644 5643 5650 5651 5651 5651 5650 5649 5647 5647 5648 5648 5647 5647 5647 5647 5647 5647 5646 5646 5646 5644 5643 5643 5641 5640 5638 5637 5636 5634 5632 5631
5652 5649 5645 5642 5651 5654 5644 5648 5649 5648 5648 5646 5642 5645 5649 5649 5649 5648 5648 5648 5646 5646 5646 5646 5646 5646 5646 5646 5646 5645 5644 5644 5643 5643 5642 5641 5640 5638 5637 5636 5633 5631 5630 5629
5651 5644 5636 5637 5643 5636 5644 5656 5654 5649 5649 5649 5648 5649 5648 5648 5649 5649 5649 5647 5646 5646 5646 5646 5646 5645 5645 5645 5645 5644 5643 5643 5642 5641 5640 5639 5638 5636 5635 5634 5631 5630 5628 5626
5653 5646 5636 5630 5632 5637 5648 5653 5652 5647 5646 5651 5649 5649 5648 5649 5650 5649 5651 5649 5647 5646 5646 5645 5645 5645 5644 5644 5644 5643 5642 5641 5640 5639 5638 5637 5636 5634 5633 5631 5630 5628 5626 5625
5649 5646 5637 5631 5632 5631 5643 5655 5658 5651 5642 5651 5650 5647 5646 5647 5641 5644 5650 5648 5647 5646 5646 5645 5645 5644 5644 5643 5643 5641 5640 5639 5638 5638 5637 5636 5635 5633 5632 5630 5628 5627 5625 5623
5642 5637 5632 5629 5629 5635 5649 5655 5656 5639 5639 5650 5649 5647 5646 5644 5642 5645 5647 5647 5646 5646 5646 5645 5644 5643 5642 5642 5641 5639 5638 5637 5638 5637 5637 5636 5634 5633 5631 5629 5627 5625 5624 5622
5637 5633 5630 5627 5627 5632 5652 5651 5644 5642 5649 5650 5649 5648 5647 5646 5646 5647 5647 5646 5646 5645 5645 5645 5643 5642 5641 5641 5640 5638 5637 5637 5637 5637 5636 5634 5633 5632 5631 5628 5626 5624 5622 5621
5637 5637 5634 5633 5636 5645 5649 5650 5652 5650 5649 5650 5649 5649 5648 5647 5646 5646 5645 5645 5644 5644 5644 5643 5642 5641 5640 5639 5639 5637 5637 5637 5636 5635 5634 5633 5632 5631 5629 5627 5625 5623 5622 5620
5641 5641 5636 5636 5643 5648 5651 5652 5653 5653 5652 5653 5652 5650 5649 5647 5646 5645 5644 5643 5642 5643 5642 5642 5641 5640 5639 5639 5638 5637 5637 5637 5636 5634 5633 5632 5631 5629 5628 5627 5625 5623 5622 5620
5641 5640 5636 5637 5644 5648 5652 5652 5653 5653 5653 5653 5652 5651 5649 5648 5646 5645 5643 5643 5642 5642 5642 5641 5640 5639 5639 5639 5638 5638 5637 5636 5635 5633 5632 5631 5630 5629 5627 5626 5624 5623 5622 5620
5639 5639 5637 5639 5645 5643 5647 5653 5653 5651 5651 5651 5650 5649 5649 5648 5646 5645 5643 5643 5642 5642 5641 5640 5640 5639 5639 5638 5638 5638 5637 5636 5634 5632 5631 5629 5628 5628 5626 5625 5624 5623 5622 5621